Simultaneous Nadir Overpasses (SNOs) Predictions

Prediction of SNOs between GOES-14 and NOAA-20 Satellite Orbit:

Table of predicted SNOs for the next 14.0 days since TLE Epoch: 4/6/2024
Index Date Time (GOES-14) GOES-14 Lat,Lon NOAA-20 Lat,Lon Distance(km) Time Diff (sec)
1 04/06/2024 20:52:37 -0.17,-108.54 -0.94,-111.98 392.01 80
2 04/07/2024 20:36:38 -0.17,-108.54 0.05,-107.47 122.46 80
3 04/09/2024 08:58:34 0.17,-108.54 1.10,-112.78 483.36 80
4 04/10/2024 08:37:15 0.17,-108.54 0.11,-108.27 30.55 80
5 04/12/2024 20:40:40 -0.17,-108.56 -0.28,-109.11 61.94 80
6 04/13/2024 20:24:41 -0.18,-108.57 0.72,-104.60 452.40 80
7 04/15/2024 08:46:36 0.18,-108.56 0.49,-109.90 153.37 80
8 04/16/2024 08:25:17 0.18,-108.56 -0.51,-105.39 360.65 80
9 04/17/2024 20:47:22 -0.18,-108.58 -0.64,-110.74 246.20 80
10 04/18/2024 20:31:22 -0.19,-108.59 0.31,-106.22 268.52 80
